Tacoma Narrows, WA
on Thursday, January 31, 2013

Thursday
Previous Day Next Day
Daily Summary
 ActualAverageRecord
Temperature
Mean Temperature °F °F  
Max Temperature 50°F 46°F 60°F (1998)
Min Temperature 45°F 37°F 30°F (2007)
Degree Days
Heating Degree Days 18    
Moisture
Dew Point 43°F   
Average Humidity 87    
Maximum Humidity 93    
Minimum Humidity 77    
Precipitation
Precipitation 0.04 in in in ()
Wind
Wind Speed 6 mph   
Max Wind Speed 12 mph   
Max Gust Speed mph   
Visibility 9 miles   
Events Rain   
Averages and records for this station are not official NWS values.
Key: T is trace of precipitation, MM is missing value
Source: NWS Daily Summary
Seasonal Weather Averages
Time(PST)TemperatureDew PointHumidity Pressure Visibility Wind DirectionWind SpeedGust SpeedPrecipitationEvents Conditions
12:53 AM 46.9°F 44.1°F 90% 30.39 in 8.0 miles SSW 4.6 mph - N/A   Overcast
1:53 AM 46.9°F 44.1°F 90% 30.40 in 10.0 miles SW 4.6 mph - N/A   Overcast
2:53 AM 46.0°F 43.0°F 89% 30.41 in 10.0 miles Variable 3.5 mph - 0.00 in   Overcast
3:53 AM 46.9°F 43.0°F 86% 30.41 in 10.0 miles SSW 4.6 mph - N/A   Overcast
4:53 AM 46.9°F 44.1°F 90% 30.39 in 10.0 miles South 5.8 mph - N/A   Overcast
5:26 AM 46.4°F 42.8°F 87% 30.38 in 10.0 miles South 5.8 mph - N/A   Overcast
5:48 AM 46.4°F 42.8°F 87% 30.38 in 10.0 miles South 5.8 mph - N/A   Overcast
5:53 AM 46.0°F 43.0°F 89% 30.39 in 10.0 miles South 5.8 mph - N/A   Overcast
6:21 AM 46.4°F 42.8°F 87% 30.38 in 10.0 miles South 8.1 mph - N/A   Overcast
6:46 AM 46.4°F 42.8°F 87% 30.38 in 10.0 miles South 9.2 mph - N/A   Overcast
6:53 AM 45.0°F 42.1°F 90% 30.39 in 10.0 miles South 9.2 mph - N/A   Overcast
7:20 AM 46.4°F 42.8°F 87% 30.38 in 10.0 miles SSW 8.1 mph - N/A   Overcast
7:53 AM 46.0°F 42.1°F 86% 30.39 in 10.0 miles SSW 8.1 mph - N/A   Overcast
8:25 AM 46.4°F 42.8°F 87% 30.38 in 10.0 miles SSW 6.9 mph - 0.00 in Rain Light Rain
8:53 AM 46.0°F 42.1°F 86% 30.38 in 10.0 miles SSW 5.8 mph - 0.00 in   Overcast
9:14 AM 46.4°F 42.8°F 87% 30.38 in 10.0 miles South 8.1 mph - N/A   Overcast
9:53 AM 46.9°F 42.1°F 83% 30.38 in 10.0 miles SSW 9.2 mph - 0.01 in Rain Light Rain
10:53 AM 46.9°F 43.0°F 86% 30.38 in 10.0 miles SSW 5.8 mph - 0.02 in Rain Light Rain
11:53 AM 46.9°F 43.0°F 86% 30.37 in 10.0 miles SSW 8.1 mph - 0.00 in   Overcast
12:53 PM 48.0°F 43.0°F 83% 30.35 in 10.0 miles South 10.4 mph - N/A   Overcast
1:53 PM 48.0°F 43.0°F 83% 30.33 in 10.0 miles South 11.5 mph - N/A   Overcast
2:53 PM 50.0°F 43.0°F 77% 30.32 in 10.0 miles South 9.2 mph - N/A   Mostly Cloudy
3:53 PM 48.0°F 42.1°F 80% 30.32 in 10.0 miles SSW 11.5 mph - N/A   Overcast
4:53 PM 48.0°F 42.1°F 80% 30.32 in 10.0 miles SSW 6.9 mph - N/A   Overcast
5:53 PM 46.9°F 43.0°F 86% 30.32 in 10.0 miles South 11.5 mph - N/A   Overcast
6:53 PM 46.9°F 43.0°F 86% 30.31 in 10.0 miles South 10.4 mph - N/A   Mostly Cloudy
7:53 PM 46.9°F 44.1°F 90% 30.32 in 10.0 miles South 8.1 mph - N/A   Overcast
8:53 PM 46.9°F 44.1°F 90% 30.32 in 10.0 miles SSW 3.5 mph - N/A   Overcast
9:53 PM 46.4°F 44.6°F 93% 30.32 in 7.0 miles South 5.8 mph - N/A   Overcast
10:53 PM 46.0°F 44.1°F 93% 30.34 in 4.0 miles SSW 3.5 mph - 0.01 in   Overcast
11:14 PM 46.4°F 44.6°F 93% 30.33 in 4.0 miles SSW 4.6 mph - 0.01 in   Overcast
11:28 PM 46.4°F 44.6°F 93% 30.33 in 3.0 miles South 5.8 mph - 0.01 in Rain Light Rain
11:44 PM 46.4°F 44.6°F 93% 30.33 in 3.0 miles SW 4.6 mph - 0.02 in Rain Light Rain
11:53 PM 46.4°F 44.6°F 93% 30.33 in 3.0 miles Calm Calm - N/A Rain Light Rain
Moon Phase
Jan. 31 Feb. 03 Feb. 10 Feb. 17 Feb. 25
Sunrise:07:36 AM (PST) Moon Rise:10:45 PM (PST)
Sunset:05:11 PM (PST) Moon Set:09:16 AM (PST)

Copyright © 2014 The Weather Underground, Inc.